EW8783 Attleboro MA US current weather conditions

sailwx.info

Wind from 295

Air temperature 17.8° C
Dewpoint 15.0° C

Last reported at 2019-Aug-23 13:01 UTC.
Time now 2019-Aug-23 13:29 UTC

Location: N 41°58' W 071°16'.
View on Google Maps.

See reports from other nearby stations

  
Tides and Currents Weather Stations Pressure Air Temp Water Temp Dewpoint Dewpoint Depression Visibility Wind Speed Wind Dir Waves Ship Positions
date/time (UTC)wind fromknots sea level pressurealtimeterstation pressurevisibilityair tempwater tempwave heightnotes
2019-Aug-23 13:01 295 17.8
2019-Aug-23 12:46 295 17.8
2019-Aug-23 12:31 295 17.8
2019-Aug-23 12:17 295 17.8
2019-Aug-23 12:01 295 18.3
2019-Aug-23 11:47 295 18.3
2019-Aug-23 11:32 295 17.8
2019-Aug-23 11:16 295 17.8
2019-Aug-23 11:03 295 17.8
2019-Aug-23 10:46 295 17.8
2019-Aug-23 10:31 295 17.8
2019-Aug-23 10:16 295 18.3
2019-Aug-23 10:01 295 18.3
2019-Aug-23 09:45 295 18.9
2019-Aug-23 09:30 295 20.0
2019-Aug-23 09:16 297 20.6
2019-Aug-23 09:00 296 21.1
2019-Aug-23 08:45 319 0 gusting 4 21.7
2019-Aug-23 08:30 360 2 gusting 6 21.7
2019-Aug-23 08:16 279 1 gusting 9 21.7
2019-Aug-23 08:00 337 2 gusting 6 21.7
2019-Aug-23 07:45 302 0 gusting 4 21.7
2019-Aug-23 07:30 331 1 gusting 6 21.7
2019-Aug-23 07:16 021 0 gusting 4 21.7
2019-Aug-23 07:00 316 1 gusting 4 21.7
2019-Aug-23 06:46 322 21.7
2019-Aug-23 06:30 322 0 gusting 1 21.7
2019-Aug-23 06:15 322 21.7
2019-Aug-23 06:00 322 21.7
2019-Aug-23 05:45 322 21.7
2019-Aug-23 05:30 322 22.2
2019-Aug-23 05:15 322 22.2
2019-Aug-23 05:00 322 22.2
2019-Aug-23 04:47 322 22.2
2019-Aug-23 04:31 322 22.2
2019-Aug-23 04:16 322 22.8
2019-Aug-23 04:02 322 22.8
2019-Aug-23 03:46 322 22.8
2019-Aug-23 03:31 322 22.8
2019-Aug-23 03:16 322 23.3
2019-Aug-23 03:01 322 23.3
2019-Aug-23 02:46 322 23.3
2019-Aug-23 02:31 322 23.9
2019-Aug-23 02:16 322 24.4
2019-Aug-23 02:01 322 24.4
2019-Aug-23 01:46 322 25.0
2019-Aug-23 01:31 322 25.6
2019-Aug-23 01:17 265 25.0
2019-Aug-23 01:01 319 25.0
2019-Aug-23 00:46 319 24.4
2019-Aug-23 00:31 319 24.4
2019-Aug-23 00:16 319 25.0
2019-Aug-23 00:01 319 25.0
2019-Aug-22 23:46 319 25.6
2019-Aug-22 23:31 319 26.1
2019-Aug-22 23:15 319 26.7
2019-Aug-22 23:02 319 27.2
2019-Aug-22 22:45 319 27.8
2019-Aug-22 22:31 319 28.3
2019-Aug-22 22:16 331 28.9
2019-Aug-22 22:01 331 0 gusting 3 29.4
2019-Aug-22 21:46 196 29.4
2019-Aug-22 21:30 305 29.4
2019-Aug-22 21:15 322 1 gusting 6 29.4
2019-Aug-22 21:01 333 30.0
2019-Aug-22 20:47 319 0 gusting 4 30.0
2019-Aug-22 20:30 315 0 gusting 6 30.0
2019-Aug-22 20:16 331 30.0
2019-Aug-22 20:00 355 1 gusting 8 30.0
2019-Aug-22 19:46 330 1 gusting 6 30.0
2019-Aug-22 19:31 332 3 gusting 7 30.0
2019-Aug-22 19:15 192 0 gusting 3 30.0
2019-Aug-22 19:01 095 0 gusting 3 29.4
2019-Aug-22 18:45 332 29.4
2019-Aug-22 18:30 040 0 gusting 4 29.4
2019-Aug-22 18:15 323 29.4
2019-Aug-22 18:00 258 1 gusting 8 29.4
2019-Aug-22 17:45 325 3 gusting 6 29.4
2019-Aug-22 17:30 319 2 gusting 6 29.4
2019-Aug-22 17:15 224 0 gusting 2 29.4
2019-Aug-22 17:00 348 2 gusting 4 28.9
2019-Aug-22 16:45 298 0 gusting 3 28.3
2019-Aug-22 16:30 333 28.9
2019-Aug-22 16:15 034 28.9
2019-Aug-22 16:01 259 28.3
2019-Aug-22 15:47 324 28.3
2019-Aug-22 15:32 221 0 gusting 3 28.3
2019-Aug-22 15:17 054 27.8
2019-Aug-22 15:01 054 27.2
2019-Aug-22 14:46 103 25.6
2019-Aug-22 14:31 103 25.0
2019-Aug-22 14:16 338 24.4
2019-Aug-22 13:46 130 23.9
2019-Aug-22 13:31 130 23.9
2019-Aug-22 13:15 130 23.3
2019-Aug-22 13:01 130 23.3
2019-Aug-22 12:46 130 23.9
2019-Aug-22 12:31 130 23.3
2019-Aug-22 12:15 130 23.3
2019-Aug-22 12:00 130 22.8
2019-Aug-22 11:46 130 21.7
2019-Aug-22 11:31 130 21.1
2019-Aug-22 11:15 130 20.6
2019-Aug-22 11:00 130 20.0
2019-Aug-22 10:45 130 20.0
2019-Aug-22 10:30 130 19.4
2019-Aug-22 10:15 130 19.4
2019-Aug-22 10:00 130 19.4
2019-Aug-22 09:45 130 19.4
2019-Aug-22 09:30 130 20.0
2019-Aug-22 09:15 130 20.0
2019-Aug-22 09:00 130 19.4
2019-Aug-22 08:45 130 19.4
2019-Aug-22 08:30 130 20.0
2019-Aug-22 08:15 130 20.0
2019-Aug-22 08:00 130 20.0
2019-Aug-22 07:45 130 20.0
2019-Aug-22 07:30 130 19.4
2019-Aug-22 07:15 130 19.4
2019-Aug-22 07:00 130 19.4
2019-Aug-22 06:45 130 19.4
2019-Aug-22 06:30 130 20.0
2019-Aug-22 06:15 130 20.0
2019-Aug-22 06:00 130 20.0
2019-Aug-22 05:31 130 20.0
2019-Aug-22 05:16 130 20.6
2019-Aug-22 05:03 130 20.6
2019-Aug-22 04:46 130 20.6
2019-Aug-22 04:31 130 20.6
2019-Aug-22 04:16 130 20.6
2019-Aug-22 04:02 130 20.6
2019-Aug-22 03:46 130 20.6
2019-Aug-22 03:31 130 20.6
2019-Aug-22 03:17 130 21.1
2019-Aug-22 03:01 130 21.1
2019-Aug-22 02:46 130 21.1
2019-Aug-22 02:32 022 21.7
2019-Aug-22 02:16 052 22.2
2019-Aug-22 02:01 112 22.2
2019-Aug-22 01:46 112 22.2
2019-Aug-22 01:31 132 1 gusting 7 22.8
2019-Aug-22 01:16 161 0 gusting 3 23.3
2019-Aug-22 01:01 152 23.3
2019-Aug-22 00:46 135 0 gusting 12 23.3
2019-Aug-22 00:31 160 23.9
2019-Aug-22 00:16 160 23.9
2019-Aug-22 00:01 160 23.9
2019-Aug-21 23:48 160 23.9
2019-Aug-21 23:31 160 23.3
2019-Aug-21 23:16 160 23.3
2019-Aug-21 23:00 160 23.3
2019-Aug-21 22:47 160 23.3
2019-Aug-21 22:30 160 23.9
2019-Aug-21 22:16 160 23.9
2019-Aug-21 22:01 161 23.9
2019-Aug-21 21:46 131 23.9
2019-Aug-21 21:31 150 23.3
2019-Aug-21 21:16 136 23.3
2019-Aug-21 21:00 138 23.9
2019-Aug-21 20:46 140 0 gusting 3 24.4
2019-Aug-21 20:30 140 25.6
2019-Aug-21 20:15 140 25.6
2019-Aug-21 20:00 140 25.6
2019-Aug-21 19:45 157 25.6
2019-Aug-21 19:31 184 26.1
2019-Aug-21 19:15 165 0 gusting 2 26.7
2019-Aug-21 19:00 157 27.2
2019-Aug-21 18:45 162 27.2
2019-Aug-21 18:31 160 0 gusting 5 27.2
2019-Aug-21 18:15 185 0 gusting 2 26.7
2019-Aug-21 18:00 184 0 gusting 2 26.7
2019-Aug-21 17:45 180 1 gusting 3 26.7
2019-Aug-21 17:30 190 0 gusting 3 27.2
2019-Aug-21 17:15 169 1 gusting 3 27.8
2019-Aug-21 17:00 197 0 gusting 2 27.8
2019-Aug-21 16:45 173 0 gusting 2 27.8
2019-Aug-21 16:30 153 0 gusting 4 27.2
2019-Aug-21 16:15 167 27.2
2019-Aug-21 16:00 163 27.2
2019-Aug-21 15:45 225 0 gusting 2 27.2
2019-Aug-21 15:31 169 27.2
2019-Aug-21 15:16 227 0 gusting 3 26.7
2019-Aug-21 15:02 182 1 gusting 5 27.2
2019-Aug-21 14:46 165 0 gusting 6 26.7
2019-Aug-21 14:32 161 0 gusting 2 26.1
2019-Aug-21 14:17 155 25.6
2019-Aug-21 14:01 161 0 gusting 3 25.0
2019-Aug-21 13:47 148 24.4
2019-Aug-21 13:31 148 23.9
2019-Aug-21 13:15 148 23.3
2019-Aug-21 13:01 083 22.8